Time,TemperatureF,DewpointF,PressureIn,WindDirection,WindDirectionDegrees,WindSpeedMPH,WindSpeedGustMPH,Humidity,HourlyPrecipIn,Conditions,Clouds,dailyrainin,SoftwareType,DateUTC
2013-09-23 00:01:00,55.9,45.1,29.89,NNW,329,2.0,10.0,67,0.00,,,0.38,meteohub,2013-09-23 04:01:00,
2013-09-23 00:02:00,55.9,45.1,29.89,NNW,347,3.0,10.0,67,0.00,,,0.38,meteohub,2013-09-23 04:02:00,
2013-09-23 00:07:00,55.9,45.1,29.89,NNW,347,3.0,10.0,67,0.00,,,0.00,meteohub,2013-09-23 04:07:00,
2013-09-23 00:12:00,55.9,45.1,29.89,North,11,4.0,10.0,67,0.00,,,0.00,meteohub,2013-09-23 04:12:00,
2013-09-23 00:17:00,55.9,44.8,29.89,North,349,6.0,9.0,66,0.00,,,0.00,meteohub,2013-09-23 04:17:00,
2013-09-23 00:22:00,55.9,44.8,29.90,NNE,12,6.0,13.0,66,0.00,,,0.00,meteohub,2013-09-23 04:22:00,
2013-09-23 00:27:00,55.9,44.8,29.89,NW,306,6.0,14.0,66,0.00,,,0.00,meteohub,2013-09-23 04:27:00,
2013-09-23 00:32:00,55.9,44.4,29.90,North,354,7.0,14.0,65,0.00,,,0.00,meteohub,2013-09-23 04:32:00,
2013-09-23 00:37:00,55.9,44.8,29.90,NNW,345,3.0,13.0,66,0.00,,,0.00,meteohub,2013-09-23 04:37:00,
2013-09-23 00:42:00,55.8,44.6,29.90,NW,318,6.0,13.0,66,0.00,,,0.00,meteohub,2013-09-23 04:42:00,
2013-09-23 00:47:00,55.8,44.6,29.90,North,349,10.0,15.0,66,0.00,,,0.00,meteohub,2013-09-23 04:47:00,
2013-09-23 00:52:00,55.8,44.6,29.90,NW,307,2.0,15.0,66,0.00,,,0.00,meteohub,2013-09-23 04:52:00,
2013-09-23 00:57:00,55.6,44.4,29.90,NW,308,17.0,17.0,66,0.00,,,0.00,meteohub,2013-09-23 04:57:00,
2013-09-23 01:02:00,55.6,44.4,29.90,WNW,298,14.0,17.0,66,0.00,,,0.00,meteohub,2013-09-23 05:02:00,
2013-09-23 01:07:00,55.6,44.8,29.91,NNW,331,5.0,17.0,67,0.00,,,0.00,meteohub,2013-09-23 05:07:00,
2013-09-23 01:12:00,55.4,44.6,29.91,NNW,339,5.0,17.0,67,0.00,,,0.00,meteohub,2013-09-23 05:12:00,
2013-09-23 01:17:00,55.2,44.8,29.90,NW,316,6.0,14.0,68,0.00,,,0.00,meteohub,2013-09-23 05:17:00,
2013-09-23 01:22:00,55.0,44.6,29.90,NW,322,4.0,10.0,68,0.00,,,0.00,meteohub,2013-09-23 05:22:00,
2013-09-23 01:27:00,54.9,44.1,29.90,NNW,343,8.0,10.0,67,0.00,,,0.00,meteohub,2013-09-23 05:27:00,
2013-09-23 01:32:00,54.9,44.4,29.90,NW,319,7.0,13.0,68,0.00,,,0.00,meteohub,2013-09-23 05:32:00,
2013-09-23 01:38:00,54.9,44.4,29.91,NW,324,4.0,17.0,68,0.00,,,0.00,meteohub,2013-09-23 05:38:00,
2013-09-23 01:43:00,54.9,45.0,29.91,NW,322,6.0,17.0,69,0.00,,,0.00,meteohub,2013-09-23 05:43:00,
2013-09-23 01:48:00,54.7,44.8,29.91,NW,309,4.0,17.0,69,0.00,,,0.00,meteohub,2013-09-23 05:48:00,
2013-09-23 01:53:00,54.7,44.8,29.91,NNW,334,3.0,10.0,69,0.00,,,0.00,meteohub,2013-09-23 05:53:00,
2013-09-23 01:58:00,54.3,44.8,29.91,NW,324,4.0,11.0,70,0.00,,,0.00,meteohub,2013-09-23 05:58:00,
2013-09-23 02:03:00,54.3,44.8,29.91,NW,325,14.0,14.0,70,0.00,,,0.00,meteohub,2013-09-23 06:03:00,
2013-09-23 02:08:00,54.7,45.1,29.91,North,4,6.0,17.0,70,0.00,,,0.00,meteohub,2013-09-23 06:08:00,
2013-09-23 02:13:00,54.3,44.8,29.91,NW,318,2.0,17.0,70,0.00,,,0.00,meteohub,2013-09-23 06:13:00,
2013-09-23 02:18:00,54.3,45.1,29.91,NNW,341,4.0,17.0,71,0.00,,,0.00,meteohub,2013-09-23 06:18:00,
2013-09-23 02:23:00,54.1,45.0,29.91,NW,318,5.0,11.0,71,0.00,,,0.00,meteohub,2013-09-23 06:23:00,
2013-09-23 02:28:00,54.1,45.0,29.91,NNW,330,2.0,11.0,71,0.00,,,0.00,meteohub,2013-09-23 06:28:00,
2013-09-23 02:33:00,54.0,44.8,29.91,NW,312,7.0,9.0,71,0.00,,,0.00,meteohub,2013-09-23 06:33:00,
2013-09-23 02:38:00,54.0,44.8,29.91,NNW,332,4.0,12.0,71,0.00,,,0.00,meteohub,2013-09-23 06:38:00,
2013-09-23 02:43:00,54.0,45.1,29.91,NW,326,4.0,12.0,72,0.00,,,0.00,meteohub,2013-09-23 06:43:00,
2013-09-23 02:48:00,53.8,45.0,29.92,NNW,327,2.0,12.0,72,0.00,,,0.00,meteohub,2013-09-23 06:48:00,
2013-09-23 02:53:00,53.6,45.1,29.92,NW,324,2.0,11.0,73,0.00,,,0.00,meteohub,2013-09-23 06:53:00,
2013-09-23 02:58:00,53.4,45.0,29.91,NNW,341,2.0,6.0,73,0.00,,,0.00,meteohub,2013-09-23 06:58:00,
2013-09-23 03:03:00,53.4,45.0,29.92,NW,318,5.0,7.0,73,0.00,,,0.00,meteohub,2013-09-23 07:03:00,
2013-09-23 03:08:00,53.4,45.0,29.92,NNW,339,5.0,8.0,73,0.00,,,0.00,meteohub,2013-09-23 07:08:00,
2013-09-23 03:13:00,53.4,45.0,29.92,NW,326,4.0,8.0,73,0.00,,,0.00,meteohub,2013-09-23 07:13:00,
2013-09-23 03:18:00,53.4,45.0,29.92,NW,314,1.0,8.0,73,0.00,,,0.00,meteohub,2013-09-23 07:18:00,
2013-09-23 03:23:00,53.2,44.8,29.92,North,4,4.0,9.0,73,0.00,,,0.00,meteohub,2013-09-23 07:23:00,
2013-09-23 03:28:00,53.2,44.8,29.92,NW,312,1.0,9.0,73,0.00,,,0.00,meteohub,2013-09-23 07:28:00,
2013-09-23 03:33:00,53.1,45.0,29.92,NNW,339,2.0,9.0,74,0.00,,,0.00,meteohub,2013-09-23 07:33:00,
2013-09-23 03:38:00,53.1,45.0,29.92,NNW,336,5.0,8.0,74,0.00,,,0.00,meteohub,2013-09-23 07:38:00,
2013-09-23 03:43:00,52.9,44.8,29.93,NW,312,1.0,8.0,74,0.00,,,0.00,meteohub,2013-09-23 07:43:00,
2013-09-23 03:48:00,52.9,44.8,29.93,NW,318,2.0,8.0,74,0.00,,,0.00,meteohub,2013-09-23 07:48:00,
2013-09-23 03:53:00,52.7,44.6,29.93,NNW,343,4.0,7.0,74,0.00,,,0.00,meteohub,2013-09-23 07:53:00,
2013-09-23 03:58:00,52.5,44.1,29.93,NNW,330,3.0,7.0,73,0.00,,,0.00,meteohub,2013-09-23 07:58:00,
2013-09-23 04:03:00,52.3,44.6,29.93,NW,323,2.0,7.0,75,0.00,,,0.00,meteohub,2013-09-23 08:03:00,
2013-09-23 04:08:00,52.2,44.4,29.93,NW,313,2.0,6.0,75,0.00,,,0.00,meteohub,2013-09-23 08:08:00,
2013-09-23 04:13:00,52.2,44.4,29.93,NW,325,2.0,6.0,75,0.00,,,0.00,meteohub,2013-09-23 08:13:00,
2013-09-23 04:18:00,51.8,44.1,29.93,NW,324,3.0,5.0,75,0.00,,,0.00,meteohub,2013-09-23 08:18:00,
2013-09-23 04:23:00,51.6,44.2,29.93,NW,320,1.0,5.0,76,0.00,,,0.00,meteohub,2013-09-23 08:23:00,
2013-09-23 04:28:00,51.6,44.2,29.93,NW,320,2.0,5.0,76,0.00,,,0.00,meteohub,2013-09-23 08:28:00,
2013-09-23 04:33:00,51.4,44.4,29.93,NNW,335,2.0,5.0,77,0.00,,,0.00,meteohub,2013-09-23 08:33:00,
2013-09-23 04:38:00,51.4,44.1,29.94,NW,312,3.0,6.0,76,0.00,,,0.00,meteohub,2013-09-23 08:38:00,
2013-09-23 04:43:00,51.3,44.6,29.94,NW,312,3.0,7.0,78,0.00,,,0.00,meteohub,2013-09-23 08:43:00,
2013-09-23 04:48:00,51.1,44.4,29.94,NW,316,3.0,7.0,78,0.00,,,0.00,meteohub,2013-09-23 08:48:00,
2013-09-23 04:53:00,51.1,44.4,29.94,NW,318,2.0,4.0,78,0.00,,,0.00,meteohub,2013-09-23 08:53:00,
2013-09-23 04:58:00,51.1,44.8,29.94,NNW,332,3.0,4.0,79,0.00,,,0.00,meteohub,2013-09-23 08:58:00,
2013-09-23 05:03:00,51.1,44.8,29.94,NNW,328,2.0,6.0,79,0.00,,,0.00,meteohub,2013-09-23 09:03:00,
2013-09-23 05:08:00,51.1,44.8,29.94,NNW,334,2.0,7.0,79,0.00,,,0.00,meteohub,2013-09-23 09:08:00,
2013-09-23 05:13:00,51.1,44.8,29.95,WNW,303,1.0,7.0,79,0.00,,,0.00,meteohub,2013-09-23 09:13:00,
2013-09-23 05:18:00,51.1,44.8,29.94,NNW,347,3.0,7.0,79,0.00,,,0.00,meteohub,2013-09-23 09:18:00,
2013-09-23 05:23:00,51.1,44.8,29.94,NW,326,2.0,5.0,79,0.00,,,0.00,meteohub,2013-09-23 09:23:00,
2013-09-23 05:28:00,51.1,44.8,29.95,North,4,1.0,7.0,79,0.00,,,0.00,meteohub,2013-09-23 09:28:00,
2013-09-23 05:33:00,51.1,44.8,29.95,NNW,345,2.0,7.0,79,0.00,,,0.00,meteohub,2013-09-23 09:33:00,
2013-09-23 05:38:00,50.9,44.6,29.95,NW,305,4.0,7.0,79,0.00,,,0.00,meteohub,2013-09-23 09:38:00,
2013-09-23 05:43:00,50.9,45.0,29.95,NW,305,0.0,6.0,80,0.00,,,0.00,meteohub,2013-09-23 09:43:00,
2013-09-23 05:48:00,50.7,44.8,29.95,NW,305,3.0,5.0,80,0.00,,,0.00,meteohub,2013-09-23 09:48:00,
2013-09-23 05:53:00,50.5,44.6,29.96,NW,314,1.0,5.0,80,0.00,,,0.00,meteohub,2013-09-23 09:53:00,
2013-09-23 05:58:00,50.5,44.6,29.96,NW,314,0.0,5.0,80,0.00,,,0.00,meteohub,2013-09-23 09:58:00,
2013-09-23 06:03:00,50.5,45.0,29.96,NW,315,1.0,5.0,81,0.00,,,0.00,meteohub,2013-09-23 10:03:00,
2013-09-23 06:08:00,50.2,45.0,29.96,WNW,301,0.0,4.0,82,0.00,,,0.00,meteohub,2013-09-23 10:08:00,
2013-09-23 06:13:00,49.8,44.8,29.96,WNW,301,2.0,3.0,83,0.00,,,0.00,meteohub,2013-09-23 10:13:00,
2013-09-23 06:18:00,49.5,44.6,29.97,WNW,301,0.0,3.0,83,0.00,,,0.00,meteohub,2013-09-23 10:18:00,
2013-09-23 06:23:00,49.3,44.6,29.97,WNW,301,0.0,3.0,84,0.00,,,0.00,meteohub,2013-09-23 10:23:00,
2013-09-23 06:28:00,49.1,44.8,29.97,WNW,301,0.0,2.0,85,0.00,,,0.00,meteohub,2013-09-23 10:28:00,
2013-09-23 06:33:00,48.9,44.6,29.97,WNW,301,0.0,2.0,85,0.00,,,0.00,meteohub,2013-09-23 10:33:00,
2013-09-23 06:38:00,48.7,44.4,29.97,WNW,301,0.0,1.0,85,0.00,,,0.00,meteohub,2013-09-23 10:38:00,
2013-09-23 06:43:00,48.7,44.4,29.97,NW,310,0.0,3.0,85,0.00,,,0.00,meteohub,2013-09-23 10:43:00,
2013-09-23 06:48:00,48.7,44.4,29.97,NW,310,0.0,3.0,85,0.00,,,0.00,meteohub,2013-09-23 10:48:00,
2013-09-23 06:53:00,48.7,44.4,29.98,NW,310,0.0,3.0,85,0.00,,,0.00,meteohub,2013-09-23 10:53:00,
2013-09-23 06:58:00,48.7,44.4,29.98,NW,315,2.0,2.0,85,0.00,,,0.00,meteohub,2013-09-23 10:58:00,
2013-09-23 07:03:00,48.9,44.2,29.98,NNW,345,0.0,4.0,84,0.00,,,0.00,meteohub,2013-09-23 11:03:00,
2013-09-23 07:08:00,49.3,44.6,29.98,NW,320,3.0,6.0,84,0.00,,,0.00,meteohub,2013-09-23 11:08:00,
2013-09-23 07:13:00,49.6,44.4,29.99,NW,307,2.0,6.0,82,0.00,,,0.00,meteohub,2013-09-23 11:13:00,
2013-09-23 07:18:00,50.2,44.6,29.98,NW,322,2.0,4.0,81,0.00,,,0.00,meteohub,2013-09-23 11:18:00,
2013-09-23 07:23:00,50.4,44.8,29.98,NNW,330,1.0,4.0,81,0.00,,,0.00,meteohub,2013-09-23 11:23:00,
2013-09-23 07:28:00,50.7,44.8,29.98,NNW,327,4.0,4.0,80,0.00,,,0.00,meteohub,2013-09-23 11:28:00,
2013-09-23 07:33:00,51.3,45.0,29.99,NW,309,3.0,7.0,79,0.00,,,0.00,meteohub,2013-09-23 11:33:00,
2013-09-23 07:38:00,51.6,45.3,29.99,NNW,328,1.0,7.0,79,0.00,,,0.00,meteohub,2013-09-23 11:38:00,
2013-09-23 07:43:00,52.0,45.3,29.99,NNW,346,0.0,7.0,78,0.00,,,0.00,meteohub,2013-09-23 11:43:00,
2013-09-23 07:48:00,52.3,45.3,29.99,NNW,346,4.0,6.0,77,0.00,,,0.00,meteohub,2013-09-23 11:48:00,
2013-09-23 07:53:00,52.7,45.3,29.99,NW,320,8.0,8.0,76,0.00,,,0.00,meteohub,2013-09-23 11:53:00,
2013-09-23 07:58:00,53.1,45.3,29.98,NNW,337,3.0,8.0,75,0.00,,,0.00,meteohub,2013-09-23 11:58:00,
2013-09-23 08:03:00,53.4,45.7,29.99,NNW,347,3.0,8.0,75,0.00,,,0.00,meteohub,2013-09-23 12:03:00,
2013-09-23 08:08:00,53.8,45.3,29.99,NW,320,3.0,8.0,73,0.00,,,0.00,meteohub,2013-09-23 12:08:00,
2013-09-23 08:13:00,54.0,45.5,29.99,NW,318,7.0,8.0,73,0.00,,,0.00,meteohub,2013-09-23 12:13:00,
2013-09-23 08:18:00,54.1,45.3,29.99,NW,308,3.0,11.0,72,0.00,,,0.00,meteohub,2013-09-23 12:18:00,
2013-09-23 08:23:00,54.3,45.5,29.99,NNW,332,7.0,11.0,72,0.00,,,0.00,meteohub,2013-09-23 12:23:00,
2013-09-23 08:28:00,54.7,45.9,29.99,NNW,343,12.0,12.0,72,0.00,,,0.00,meteohub,2013-09-23 12:28:00,
2013-09-23 08:33:00,54.7,45.5,29.99,North,359,4.0,12.0,71,0.00,,,0.00,meteohub,2013-09-23 12:33:00,
2013-09-23 08:38:00,54.7,45.1,29.99,NW,307,8.0,12.0,70,0.00,,,0.00,meteohub,2013-09-23 12:38:00,
2013-09-23 08:43:00,54.7,45.1,29.99,NW,323,6.0,13.0,70,0.00,,,0.00,meteohub,2013-09-23 12:43:00,
2013-09-23 08:48:00,54.9,45.3,29.99,North,4,8.0,13.0,70,0.00,,,0.00,meteohub,2013-09-23 12:48:00,
2013-09-23 08:53:00,54.9,45.0,29.99,North,9,6.0,13.0,69,0.00,,,0.00,meteohub,2013-09-23 12:53:00,
2013-09-23 08:58:00,54.9,45.0,29.99,WNW,299,7.0,13.0,69,0.00,,,0.00,meteohub,2013-09-23 12:58:00,
2013-09-23 09:03:00,55.0,45.1,29.99,NW,324,9.0,16.0,69,0.00,,,0.00,meteohub,2013-09-23 13:03:00,
2013-09-23 09:08:00,55.2,45.1,29.99,NNW,327,3.0,16.0,69,0.00,,,0.00,meteohub,2013-09-23 13:08:00,
2013-09-23 09:13:00,55.2,44.8,29.99,NNW,337,4.0,16.0,68,0.00,,,0.00,meteohub,2013-09-23 13:13:00,
2013-09-23 09:18:00,55.4,45.0,29.99,NNW,328,7.0,15.0,68,0.00,,,0.00,meteohub,2013-09-23 13:18:00,
2013-09-23 09:23:00,55.6,45.5,29.99,NE,39,8.0,13.0,69,0.00,,,0.00,meteohub,2013-09-23 13:23:00,
2013-09-23 09:28:00,55.8,45.7,29.99,NNW,343,4.0,14.0,69,0.00,,,0.00,meteohub,2013-09-23 13:28:00,
2013-09-23 09:33:00,55.9,45.5,29.99,NE,45,4.0,14.0,68,0.00,,,0.00,meteohub,2013-09-23 13:33:00,
2013-09-23 09:38:00,55.9,45.1,29.99,NW,324,7.0,14.0,67,0.00,,,0.00,meteohub,2013-09-23 13:38:00,
2013-09-23 09:43:00,56.3,45.9,29.99,North,354,9.0,14.0,68,0.00,,,0.00,meteohub,2013-09-23 13:43:00,
2013-09-23 09:48:00,56.5,46.0,29.99,NNW,330,5.0,14.0,68,0.00,,,0.00,meteohub,2013-09-23 13:48:00,
2013-09-23 09:54:00,56.1,45.7,29.99,NNW,340,5.0,12.0,68,0.00,,,0.00,meteohub,2013-09-23 13:54:00,
2013-09-23 09:59:00,56.1,45.0,29.99,NW,308,5.0,13.0,66,0.00,,,0.00,meteohub,2013-09-23 13:59:00,
2013-09-23 10:04:00,56.1,45.7,29.99,NNW,336,9.0,13.0,68,0.00,,,0.00,meteohub,2013-09-23 14:04:00,
2013-09-23 10:09:00,56.3,45.5,29.98,NW,310,6.0,13.0,67,0.00,,,0.00,meteohub,2013-09-23 14:09:00,
2013-09-23 10:14:00,56.5,44.4,29.98,NNW,341,5.0,13.0,64,0.00,,,0.00,meteohub,2013-09-23 14:14:00,
2013-09-23 10:19:00,56.5,44.8,29.98,NNE,16,2.0,13.0,65,0.00,,,0.00,meteohub,2013-09-23 14:19:00,
2013-09-23 10:24:00,56.8,46.0,29.98,NW,311,9.0,13.0,67,0.00,,,0.00,meteohub,2013-09-23 14:24:00,
2013-09-23 10:29:00,56.8,44.8,29.98,NNE,26,4.0,14.0,64,0.00,,,0.00,meteohub,2013-09-23 14:29:00,
2013-09-23 10:34:00,56.5,44.1,29.98,NW,313,10.0,15.0,63,0.00,,,0.00,meteohub,2013-09-23 14:34:00,
2013-09-23 10:39:00,56.8,44.8,29.99,NNW,335,8.0,18.0,64,0.00,,,0.00,meteohub,2013-09-23 14:39:00,
2013-09-23 10:44:00,57.0,44.6,29.98,NNW,332,1.0,18.0,63,0.00,,,0.00,meteohub,2013-09-23 14:44:00,
2013-09-23 10:49:00,57.0,44.6,29.98,NNW,334,11.0,18.0,63,0.00,,,0.00,meteohub,2013-09-23 14:49:00,
2013-09-23 10:54:00,56.8,45.1,29.99,NW,320,6.0,14.0,65,0.00,,,0.00,meteohub,2013-09-23 14:54:00,
2013-09-23 10:59:00,57.2,45.1,29.99,NW,306,15.0,15.0,64,0.00,,,0.00,meteohub,2013-09-23 14:59:00,
2013-09-23 11:05:00,56.3,44.6,29.99,NNE,19,7.0,14.0,65,0.00,,,0.00,meteohub,2013-09-23 15:05:00,
2013-09-23 11:10:00,56.5,45.3,29.99,NW,321,10.0,16.0,66,0.00,,,0.00,meteohub,2013-09-23 15:10:00,
2013-09-23 11:15:00,56.1,45.0,29.99,NW,322,8.0,16.0,66,0.00,,,0.00,meteohub,2013-09-23 15:15:00,
2013-09-23 11:20:00,56.5,45.7,29.99,NNE,25,6.0,16.0,67,0.00,,,0.00,meteohub,2013-09-23 15:20:00,
2013-09-23 11:25:00,56.8,45.7,29.99,NW,309,7.0,16.0,66,0.00,,,0.00,meteohub,2013-09-23 15:25:00,
2013-09-23 11:30:00,56.8,45.1,29.99,NW,324,3.0,14.0,65,0.00,,,0.00,meteohub,2013-09-23 15:30:00,
2013-09-23 11:35:00,56.8,45.1,29.99,WNW,299,7.0,12.0,65,0.00,,,0.00,meteohub,2013-09-23 15:35:00,
2013-09-23 11:40:00,56.8,44.8,29.99,NW,305,7.0,13.0,64,0.00,,,0.00,meteohub,2013-09-23 15:40:00,
2013-09-23 11:45:00,56.8,46.0,29.99,NW,310,11.0,17.0,67,0.00,,,0.00,meteohub,2013-09-23 15:45:00,
2013-09-23 11:50:00,56.8,46.0,29.98,WNW,285,9.0,17.0,67,0.00,,,0.00,meteohub,2013-09-23 15:50:00,
2013-09-23 11:55:00,57.2,45.5,29.98,NNW,328,7.0,17.0,65,0.00,,,0.00,meteohub,2013-09-23 15:55:00,
2013-09-23 12:00:00,57.4,45.7,29.98,NNW,332,8.0,14.0,65,0.00,,,0.00,meteohub,2013-09-23 16:00:00,
2013-09-23 12:05:00,57.4,46.0,29.98,NW,325,7.0,14.0,66,0.00,,,0.00,meteohub,2013-09-23 16:05:00,
2013-09-23 12:10:00,57.4,45.0,29.98,NNW,328,4.0,18.0,63,0.00,,,0.00,meteohub,2013-09-23 16:10:00,
2013-09-23 12:15:00,57.7,46.4,29.98,NNW,335,3.0,18.0,66,0.00,,,0.00,meteohub,2013-09-23 16:15:00,
2013-09-23 12:20:00,57.9,45.9,29.98,North,4,4.0,16.0,64,0.00,,,0.00,meteohub,2013-09-23 16:20:00,
2013-09-23 12:25:00,57.9,45.9,29.98,North,354,7.0,16.0,64,0.00,,,0.00,meteohub,2013-09-23 16:25:00,
2013-09-23 12:30:00,57.9,45.3,29.98,NNW,330,12.0,13.0,63,0.00,,,0.00,meteohub,2013-09-23 16:30:00,
2013-09-23 12:35:00,58.1,46.0,29.98,NW,305,7.0,13.0,64,0.00,,,0.00,meteohub,2013-09-23 16:35:00,
2013-09-23 12:40:00,58.1,45.5,29.98,NNW,339,6.0,16.0,63,0.00,,,0.00,meteohub,2013-09-23 16:40:00,
2013-09-23 12:45:00,58.3,45.7,29.98,NW,317,9.0,16.0,63,0.00,,,0.00,meteohub,2013-09-23 16:45:00,
2013-09-23 12:50:00,58.3,46.9,29.98,NNE,24,4.0,13.0,66,0.00,,,0.00,meteohub,2013-09-23 16:50:00,
2013-09-23 12:55:00,58.3,45.7,29.98,NW,317,9.0,18.0,63,0.00,,,0.00,meteohub,2013-09-23 16:55:00,
2013-09-23 13:00:00,58.5,45.5,29.98,WNW,299,5.0,18.0,62,0.00,,,0.00,meteohub,2013-09-23 17:00:00,
2013-09-23 13:05:00,58.6,46.6,29.98,NNE,17,4.0,13.0,64,0.00,,,0.00,meteohub,2013-09-23 17:05:00,
2013-09-23 13:10:00,59.2,46.6,29.97,NNW,343,11.0,13.0,63,0.00,,,0.00,meteohub,2013-09-23 17:10:00,
2013-09-23 13:15:00,59.4,45.0,29.97,WNW,303,5.0,13.0,59,0.00,,,0.00,meteohub,2013-09-23 17:15:00,
2013-09-23 13:20:00,59.4,45.9,29.97,NW,306,4.0,13.0,61,0.00,,,0.00,meteohub,2013-09-23 17:20:00,
2013-09-23 13:25:00,60.1,46.6,29.97,NNW,342,4.0,13.0,61,0.00,,,0.00,meteohub,2013-09-23 17:25:00,
2013-09-23 13:30:00,60.4,46.4,29.97,North,4,8.0,13.0,60,0.00,,,0.00,meteohub,2013-09-23 17:30:00,
2013-09-23 13:35:00,60.3,45.9,29.97,NW,324,5.0,13.0,59,0.00,,,0.00,meteohub,2013-09-23 17:35:00,
2013-09-23 13:40:00,60.3,45.9,29.97,NNW,345,10.0,18.0,59,0.00,,,0.00,meteohub,2013-09-23 17:40:00,
2013-09-23 13:45:00,60.1,46.2,29.97,NNW,338,6.0,18.0,60,0.00,,,0.00,meteohub,2013-09-23 17:45:00,
2013-09-23 13:50:00,59.9,45.1,29.97,NW,307,5.0,18.0,58,0.00,,,0.00,meteohub,2013-09-23 17:50:00,
2013-09-23 13:55:00,60.3,45.9,29.97,NE,39,7.0,13.0,59,0.00,,,0.00,meteohub,2013-09-23 17:55:00,
2013-09-23 14:00:00,60.6,45.3,29.97,North,354,5.0,15.0,57,0.00,,,0.00,meteohub,2013-09-23 18:00:00,
2013-09-23 14:05:00,60.8,46.8,29.97,NNW,337,5.0,15.0,60,0.00,,,0.00,meteohub,2013-09-23 18:05:00,
2013-09-23 14:10:00,61.0,46.0,29.96,NNW,332,7.0,13.0,58,0.00,,,0.00,meteohub,2013-09-23 18:10:00,
2013-09-23 14:15:00,61.0,45.7,29.96,NW,310,5.0,13.0,57,0.00,,,0.00,meteohub,2013-09-23 18:15:00,
2013-09-23 14:20:00,60.8,45.0,29.96,NW,320,6.0,14.0,56,0.00,,,0.00,meteohub,2013-09-23 18:20:00,
2013-09-23 14:25:00,61.0,46.0,29.96,North,354,10.0,15.0,58,0.00,,,0.00,meteohub,2013-09-23 18:25:00,
2013-09-23 14:30:00,61.0,46.0,29.96,WNW,301,6.0,15.0,58,0.00,,,0.00,meteohub,2013-09-23 18:30:00,
2013-09-23 14:36:00,61.0,46.0,29.96,NW,307,5.0,18.0,58,0.00,,,0.00,meteohub,2013-09-23 18:36:00,
2013-09-23 14:41:00,61.3,46.9,29.96,NNW,343,6.0,18.0,59,0.00,,,0.00,meteohub,2013-09-23 18:41:00,
2013-09-23 14:46:00,61.9,46.4,29.96,NW,308,8.0,15.0,57,0.00,,,0.00,meteohub,2013-09-23 18:46:00,
2013-09-23 14:51:00,62.1,47.1,29.96,NW,321,5.0,12.0,58,0.00,,,0.00,meteohub,2013-09-23 18:51:00,
2013-09-23 14:56:00,61.9,45.5,29.96,NNE,19,5.0,15.0,55,0.00,,,0.00,meteohub,2013-09-23 18:56:00,
2013-09-23 15:01:00,61.7,46.4,29.96,NNW,330,7.0,15.0,57,0.00,,,0.00,meteohub,2013-09-23 19:01:00,
2013-09-23 15:06:00,62.1,45.7,29.96,North,354,7.0,15.0,55,0.00,,,0.00,meteohub,2013-09-23 19:06:00,
2013-09-23 15:11:00,61.5,45.7,29.96,NW,308,7.0,14.0,56,0.00,,,0.00,meteohub,2013-09-23 19:11:00,
2013-09-23 15:16:00,61.3,46.0,29.95,NNW,341,9.0,14.0,57,0.00,,,0.00,meteohub,2013-09-23 19:16:00,
2013-09-23 15:21:00,61.5,46.6,29.96,NNW,345,8.0,14.0,58,0.00,,,0.00,meteohub,2013-09-23 19:21:00,
2013-09-23 15:26:00,61.5,46.2,29.95,WNW,303,10.0,17.0,57,0.00,,,0.00,meteohub,2013-09-23 19:26:00,
2013-09-23 15:31:00,61.3,46.4,29.95,NW,312,14.0,17.0,58,0.00,,,0.00,meteohub,2013-09-23 19:31:00,
2013-09-23 15:36:00,61.9,47.5,29.95,WNW,301,9.0,17.0,59,0.00,,,0.00,meteohub,2013-09-23 19:36:00,
2013-09-23 15:41:00,61.5,46.6,29.95,NNW,330,5.0,15.0,58,0.00,,,0.00,meteohub,2013-09-23 19:41:00,
2013-09-23 15:46:00,61.9,47.5,29.95,North,354,7.0,15.0,59,0.00,,,0.00,meteohub,2013-09-23 19:46:00,
2013-09-23 15:51:00,62.2,47.3,29.95,WNW,300,9.0,14.0,58,0.00,,,0.00,meteohub,2013-09-23 19:51:00,
2013-09-23 15:56:00,62.2,46.8,29.95,NNW,333,10.0,12.0,57,0.00,,,0.00,meteohub,2013-09-23 19:56:00,
2013-09-23 16:01:00,61.9,46.0,29.95,NW,308,7.0,14.0,56,0.00,,,0.00,meteohub,2013-09-23 20:01:00,
2013-09-23 16:06:00,62.1,47.1,29.95,North,354,6.0,14.0,58,0.00,,,0.00,meteohub,2013-09-23 20:06:00,
2013-09-23 16:11:00,62.2,46.8,29.95,NW,322,6.0,14.0,57,0.00,,,0.00,meteohub,2013-09-23 20:11:00,
2013-09-23 16:16:00,62.4,46.9,29.95,North,349,5.0,13.0,57,0.00,,,0.00,meteohub,2013-09-23 20:16:00,
2013-09-23 16:21:00,62.2,46.4,29.95,North,354,8.0,13.0,56,0.00,,,0.00,meteohub,2013-09-23 20:21:00,
2013-09-23 16:26:00,62.2,46.4,29.96,West,272,6.0,15.0,56,0.00,,,0.00,meteohub,2013-09-23 20:26:00,
2013-09-23 16:31:00,62.2,47.3,29.96,NW,325,13.0,15.0,58,0.00,,,0.00,meteohub,2013-09-23 20:31:00,
2013-09-23 16:36:00,62.2,46.4,29.96,NNW,330,4.0,15.0,56,0.00,,,0.00,meteohub,2013-09-23 20:36:00,
2013-09-23 16:41:00,62.2,46.4,29.96,WNW,301,7.0,14.0,56,0.00,,,0.00,meteohub,2013-09-23 20:41:00,
2013-09-23 16:46:00,62.2,46.8,29.96,NW,313,4.0,14.0,57,0.00,,,0.00,meteohub,2013-09-23 20:46:00,
2013-09-23 16:51:00,62.4,47.5,29.96,NNW,328,6.0,13.0,58,0.00,,,0.00,meteohub,2013-09-23 20:51:00,
2013-09-23 16:56:00,62.2,45.9,29.96,NNW,337,6.0,11.0,55,0.00,,,0.00,meteohub,2013-09-23 20:56:00,
2013-09-23 17:01:00,62.2,45.9,29.96,NW,308,9.0,14.0,55,0.00,,,0.00,meteohub,2013-09-23 21:01:00,
2013-09-23 17:06:00,62.1,46.6,29.96,NW,317,4.0,14.0,57,0.00,,,0.00,meteohub,2013-09-23 21:06:00,
2013-09-23 17:11:00,62.1,46.6,29.96,ENE,59,7.0,14.0,57,0.00,,,0.00,meteohub,2013-09-23 21:11:00,
2013-09-23 17:16:00,61.9,46.0,29.96,WNW,303,6.0,13.0,56,0.00,,,0.00,meteohub,2013-09-23 21:16:00,
2013-09-23 17:21:00,61.5,46.2,29.96,NNW,328,6.0,13.0,57,0.00,,,0.00,meteohub,2013-09-23 21:21:00,
2013-09-23 17:26:00,61.3,46.4,29.97,WNW,302,8.0,13.0,58,0.00,,,0.00,meteohub,2013-09-23 21:26:00,
2013-09-23 17:31:00,61.2,46.8,29.97,WNW,303,5.0,13.0,59,0.00,,,0.00,meteohub,2013-09-23 21:31:00,
2013-09-23 17:36:00,61.0,46.0,29.97,West,274,1.0,12.0,58,0.00,,,0.00,meteohub,2013-09-23 21:36:00,
2013-09-23 17:41:00,61.0,46.6,29.97,NNW,330,9.0,12.0,59,0.00,,,0.00,meteohub,2013-09-23 21:41:00,
2013-09-23 17:46:00,60.6,46.2,29.97,NW,323,6.0,11.0,59,0.00,,,0.00,meteohub,2013-09-23 21:46:00,
2013-09-23 17:51:00,60.6,46.2,29.97,NW,320,4.0,12.0,59,0.00,,,0.00,meteohub,2013-09-23 21:51:00,
2013-09-23 17:56:00,60.3,46.8,29.97,NW,314,2.0,12.0,61,0.00,,,0.00,meteohub,2013-09-23 21:56:00,
2013-09-23 18:01:00,60.1,46.6,29.98,North,4,6.0,12.0,61,0.00,,,0.00,meteohub,2013-09-23 22:01:00,
2013-09-23 18:06:00,60.1,46.6,29.98,NW,310,6.0,9.0,61,0.00,,,0.00,meteohub,2013-09-23 22:06:00,
2013-09-23 18:11:00,59.7,47.1,29.98,WNW,297,4.0,9.0,63,0.00,,,0.00,meteohub,2013-09-23 22:11:00,
2013-09-23 18:16:00,59.5,47.3,29.98,NW,324,4.0,9.0,64,0.00,,,0.00,meteohub,2013-09-23 22:16:00,
2013-09-23 18:21:00,59.4,47.7,29.99,NW,320,1.0,8.0,65,0.00,,,0.00,meteohub,2013-09-23 22:21:00,
2013-09-23 18:26:00,59.0,47.3,29.99,NW,317,2.0,6.0,65,0.00,,,0.00,meteohub,2013-09-23 22:26:00,
2013-09-23 18:31:00,58.6,48.2,29.98,NW,317,0.0,5.0,68,0.00,,,0.00,meteohub,2013-09-23 22:31:00,
2013-09-23 18:36:00,58.3,48.6,29.99,NW,316,0.0,5.0,70,0.00,,,0.00,meteohub,2013-09-23 22:36:00,
2013-09-23 18:41:00,57.7,48.4,29.99,NW,317,0.0,4.0,71,0.00,,,0.00,meteohub,2013-09-23 22:41:00,
2013-09-23 18:46:00,57.0,48.4,29.99,NW,316,0.0,1.0,73,0.00,,,0.00,meteohub,2013-09-23 22:46:00,
2013-09-23 18:52:00,56.5,48.4,29.99,NW,316,1.0,1.0,74,0.00,,,0.00,meteohub,2013-09-23 22:52:00,
2013-09-23 18:57:00,55.9,48.2,29.99,NW,316,1.0,2.0,75,0.00,,,0.00,meteohub,2013-09-23 22:57:00,
2013-09-23 19:02:00,55.4,48.0,29.99,NW,316,2.0,2.0,76,0.00,,,0.00,meteohub,2013-09-23 23:02:00,
2013-09-23 19:07:00,55.0,48.0,29.99,NW,316,0.0,2.0,77,0.00,,,0.00,meteohub,2013-09-23 23:07:00,
2013-09-23 19:12:00,54.7,48.0,29.99,NW,316,1.0,2.0,78,0.00,,,0.00,meteohub,2013-09-23 23:12:00,
2013-09-23 19:17:00,54.1,47.8,29.99,NW,316,2.0,2.0,79,0.00,,,0.00,meteohub,2013-09-23 23:17:00,
2013-09-23 19:22:00,53.8,47.8,29.99,NW,316,2.0,3.0,80,0.00,,,0.00,meteohub,2013-09-23 23:22:00,
2013-09-23 19:27:00,53.4,47.7,29.99,NW,316,2.0,3.0,81,0.00,,,0.00,meteohub,2013-09-23 23:27:00,
2013-09-23 19:32:00,53.2,47.8,29.99,NW,316,2.0,3.0,82,0.00,,,0.00,meteohub,2013-09-23 23:32:00,
2013-09-23 19:37:00,53.1,47.7,30.00,NW,316,2.0,3.0,82,0.00,,,0.00,meteohub,2013-09-23 23:37:00,
2013-09-23 19:42:00,52.7,47.7,30.00,NW,316,1.0,4.0,83,0.00,,,0.00,meteohub,2013-09-23 23:42:00,
2013-09-23 19:47:00,52.5,47.5,30.00,NW,316,2.0,4.0,83,0.00,,,0.00,meteohub,2013-09-23 23:47:00,
2013-09-23 19:52:00,52.3,47.3,30.00,NW,321,2.0,4.0,83,0.00,,,0.00,meteohub,2013-09-23 23:52:00,
2013-09-23 19:57:00,52.3,47.7,30.00,NW,321,2.0,4.0,84,0.00,,,0.00,meteohub,2013-09-23 23:57:00,
2013-09-23 20:02:00,52.3,47.7,30.01,NW,317,1.0,4.0,84,0.00,,,0.00,meteohub,2013-09-24 00:02:00,
2013-09-23 20:07:00,52.3,47.7,30.01,NW,317,1.0,4.0,84,0.00,,,0.00,meteohub,2013-09-24 00:07:00,
2013-09-23 20:12:00,52.2,47.5,30.01,NW,317,1.0,3.0,84,0.00,,,0.00,meteohub,2013-09-24 00:12:00,
2013-09-23 20:17:00,51.8,47.5,30.01,NW,317,1.0,3.0,85,0.00,,,0.00,meteohub,2013-09-24 00:17:00,
2013-09-23 20:22:00,51.4,47.1,30.01,NW,317,1.0,2.0,85,0.00,,,0.00,meteohub,2013-09-24 00:22:00,
2013-09-23 20:27:00,51.3,46.9,30.01,NW,317,2.0,3.0,85,0.00,,,0.00,meteohub,2013-09-24 00:27:00,
2013-09-23 20:32:00,51.1,46.8,30.01,NW,320,2.0,3.0,85,0.00,,,0.00,meteohub,2013-09-24 00:32:00,
2013-09-23 20:37:00,51.1,46.8,30.02,NW,321,1.0,3.0,85,0.00,,,0.00,meteohub,2013-09-24 00:37:00,
2013-09-23 20:42:00,51.3,46.9,30.02,NW,321,0.0,3.0,85,0.00,,,0.00,meteohub,2013-09-24 00:42:00,
2013-09-23 20:48:00,51.1,46.8,30.01,NW,321,0.0,3.0,85,0.00,,,0.00,meteohub,2013-09-24 00:48:00,
2013-09-23 20:53:00,50.9,46.6,30.01,NW,321,0.0,2.0,85,0.00,,,0.00,meteohub,2013-09-24 00:53:00,
2013-09-23 20:58:00,50.7,46.8,30.01,NW,321,0.0,0.0,86,0.00,,,0.00,meteohub,2013-09-24 00:58:00,
2013-09-23 21:03:00,50.5,46.6,30.01,NW,321,0.0,0.0,86,0.00,,,0.00,meteohub,2013-09-24 01:03:00,
2013-09-23 21:08:00,50.5,46.8,30.01,NW,321,0.0,0.0,87,0.00,,,0.00,meteohub,2013-09-24 01:08:00,
2013-09-23 21:13:00,50.5,46.8,30.01,NW,311,2.0,0.0,87,0.00,,,0.00,meteohub,2013-09-24 01:13:00,
2013-09-23 21:18:00,50.5,46.8,30.01,NNW,336,0.0,2.0,87,0.00,,,0.00,meteohub,2013-09-24 01:18:00,
2013-09-23 21:23:00,50.4,46.6,30.02,NNW,336,0.0,4.0,87,0.00,,,0.00,meteohub,2013-09-24 01:23:00,
2013-09-23 21:28:00,50.2,46.4,30.02,NNW,336,0.0,4.0,87,0.00,,,0.00,meteohub,2013-09-24 01:28:00,
2013-09-23 21:33:00,49.8,46.4,30.02,NNW,336,1.0,4.0,88,0.00,,,0.00,meteohub,2013-09-24 01:33:00,
2013-09-23 21:38:00,49.5,46.0,30.02,NNW,336,1.0,2.0,88,0.00,,,0.00,meteohub,2013-09-24 01:38:00,
2013-09-23 21:43:00,49.5,46.4,30.02,NNW,336,1.0,2.0,89,0.00,,,0.00,meteohub,2013-09-24 01:43:00,
2013-09-23 21:48:00,49.6,46.6,30.02,NNW,336,1.0,2.0,89,0.00,,,0.00,meteohub,2013-09-24 01:48:00,
2013-09-23 21:53:00,49.6,46.6,30.02,NNW,336,0.0,2.0,89,0.00,,,0.00,meteohub,2013-09-24 01:53:00,
2013-09-23 21:58:00,49.6,46.6,30.02,NNW,336,0.0,2.0,89,0.00,,,0.00,meteohub,2013-09-24 01:58:00,
2013-09-23 22:03:00,49.6,46.6,30.02,NNW,336,0.0,2.0,89,0.00,,,0.00,meteohub,2013-09-24 02:03:00,
2013-09-23 22:08:00,49.6,46.8,30.03,NNW,336,0.0,2.0,90,0.00,,,0.00,meteohub,2013-09-24 02:08:00,
2013-09-23 22:13:00,49.8,46.8,30.03,NNW,336,0.0,1.0,89,0.00,,,0.00,meteohub,2013-09-24 02:13:00,
2013-09-23 22:18:00,50.0,46.9,30.03,NNW,336,0.0,1.0,89,0.00,,,0.00,meteohub,2013-09-24 02:18:00,
2013-09-23 22:23:00,50.2,47.1,30.03,NNW,336,0.0,1.0,89,0.00,,,0.00,meteohub,2013-09-24 02:23:00,
2013-09-23 22:28:00,50.4,47.3,30.04,NNW,336,0.0,1.0,89,0.00,,,0.00,meteohub,2013-09-24 02:28:00,
2013-09-23 22:33:00,50.4,47.3,30.04,NNW,336,1.0,1.0,89,0.00,,,0.00,meteohub,2013-09-24 02:33:00,
2013-09-23 22:38:00,50.4,46.9,30.04,NNW,336,1.0,1.0,88,0.00,,,0.00,meteohub,2013-09-24 02:38:00,
2013-09-23 22:43:00,50.2,46.8,30.04,NNW,336,1.0,2.0,88,0.00,,,0.00,meteohub,2013-09-24 02:43:00,
2013-09-23 22:48:00,50.2,46.8,30.04,NNW,336,2.0,2.0,88,0.00,,,0.00,meteohub,2013-09-24 02:48:00,
2013-09-23 22:53:00,50.5,47.1,30.03,NW,322,2.0,3.0,88,0.00,,,0.00,meteohub,2013-09-24 02:53:00,
2013-09-23 22:58:00,51.1,47.1,30.03,NW,314,2.0,5.0,86,0.00,,,0.00,meteohub,2013-09-24 02:58:00,
2013-09-23 23:03:00,51.6,47.3,30.03,NW,321,0.0,5.0,85,0.00,,,0.00,meteohub,2013-09-24 03:03:00,
2013-09-23 23:08:00,52.0,46.9,30.04,NW,326,1.0,5.0,83,0.00,,,0.00,meteohub,2013-09-24 03:08:00,
2013-09-23 23:13:00,52.2,46.8,30.04,NNW,331,0.0,5.0,82,0.00,,,0.00,meteohub,2013-09-24 03:13:00,
2013-09-23 23:18:00,52.3,47.3,30.04,NNW,331,1.0,4.0,83,0.00,,,0.00,meteohub,2013-09-24 03:18:00,
2013-09-23 23:23:00,52.3,46.9,30.04,NNW,331,0.0,3.0,82,0.00,,,0.00,meteohub,2013-09-24 03:23:00,
2013-09-23 23:28:00,52.3,46.9,30.04,NNW,331,1.0,3.0,82,0.00,,,0.00,meteohub,2013-09-24 03:28:00,
2013-09-23 23:33:00,52.2,47.1,30.04,NNW,331,1.0,3.0,83,0.00,,,0.00,meteohub,2013-09-24 03:33:00,
2013-09-23 23:38:00,52.0,46.9,30.04,NNW,331,3.0,3.0,83,0.00,,,0.00,meteohub,2013-09-24 03:38:00,
2013-09-23 23:43:00,51.4,46.8,30.04,NNW,327,4.0,4.0,84,0.00,,,0.00,meteohub,2013-09-24 03:43:00,
2013-09-23 23:48:00,51.6,46.9,30.03,NNW,336,3.0,5.0,84,0.00,,,0.00,meteohub,2013-09-24 03:48:00,
2013-09-23 23:53:00,52.0,46.9,30.04,NNW,341,2.0,5.0,83,0.00,,,0.00,meteohub,2013-09-24 03:53:00,
2013-09-23 23:58:00,52.2,47.1,30.03,NNW,334,1.0,5.0,83,0.00,,,0.00,meteohub,2013-09-24 03:58:00,